Flag for Germany Weather for the Past 2 Weeks in Rheda-Wiedenbrück, North Rhine-Westphalia, Germany

Now
57 °F

Sunny.


Feels Like: 57 °F
Forecast: 40 / 66 °F
Wind: 3 mph from North

Location: Paderborn / Lippstadt

Current Time: May 4, 2016 at 6:28:39 PM

Latest Report: May 4, 2016 at 5:50 PM


Visibility: 10 mi

Pressure: 30.36 "Hg

Humidity: 39%

Dew Point: 32 °F

Location of Rheda-WiedenbrückLocation

Historic Weather in Rheda-Wiedenbrück — Graph

°F

Rheda-Wiedenbrück Temperature Yesterday

Maximum temperature yesterday: 55 °F (at 5:50 PM)
Minimum temperature yesterday: 45 °F (at 9:50 AM)
Average temperature yesterday: 50 °F

High & Low Weather Summary for the Past Weeks

 TemperatureHumidityPressure
High66 °F (May 2, 3:20 PM)100% (Apr 20, 4:20 AM)30.45 "Hg (Apr 20, 4:20 AM)
Low32 °F (Apr 24, 4:20 PM)28% (May 2, 2:50 PM)29.45 "Hg (Apr 26, 10:50 AM)
Average44 °F77%30.02 "Hg
* Reported Apr 19 5:20 PM — May 4 5:20 PM, Rheda-Wiedenbrück, Weather by CustomWeather, © 2016

Note: Actual official high and low records may vary slightly from our data, if they occured in-between our weather recording intervals... More about our weather records

Advertising

Rheda-Wiedenbrück Weather History for the Previous 24 Hours

Scroll right to see more
 ConditionsComfort  
Time TempWeatherWind HumidityBarometerVisibility
5:20 PM
Wed, May 4
55 °FSunny.5 mph41%30.36 "Hg10 mi
4:20 PM55 °FPassing clouds.5 mph38%30.36 "HgN/A
3:50 PM55 °FSunny.5 mph44%30.36 "Hg10 mi
3:20 PM55 °FSunny.3 mph41%30.39 "Hg10 mi
2:50 PM55 °FSunny.5 mph47%30.39 "Hg10 mi
2:20 PM54 °FPassing clouds.5 mph44%30.39 "HgN/A
1:20 PM52 °FScattered clouds.6 mph50%30.39 "HgN/A
12:50 PM52 °FScattered clouds.6 mph58%30.39 "HgN/A
12:20 PM50 °FScattered clouds.3 mph58%30.39 "HgN/A
11:50 AM48 °FScattered clouds.5 mph71%30.42 "HgN/A
11:20 AM46 °FScattered clouds.5 mph71%30.39 "HgN/A
10:50 AM46 °FScattered clouds.5 mph71%30.42 "HgN/A
9:50 AM46 °FScattered clouds.5 mph76%30.42 "HgN/A
9:20 AM46 °FScattered clouds.5 mph87%30.39 "HgN/A
8:50 AM45 °FPassing clouds.5 mph87%30.39 "HgN/A
8:20 AM45 °FPassing clouds.3 mph87%30.39 "HgN/A
7:50 AM43 °FPassing clouds.3 mph100%30.39 "HgN/A
6:50 AM39 °FScattered clouds.3 mph100%30.39 "HgN/A
6:20 AM39 °FPartly cloudy.3 mph100%30.39 "HgN/A
5:50 AM41 °FPassing clouds.1 mph93%30.36 "HgN/A
5:20 AM39 °FPassing clouds.2 mph100%30.36 "HgN/A
4:50 AM39 °FPassing clouds.1 mph100%30.36 "HgN/A
4:20 AM39 °FPassing clouds.2 mph100%30.36 "HgN/A
3:50 AM39 °FPassing clouds.2 mph100%30.36 "HgN/A
3:20 AM39 °FPassing clouds.2 mph93%30.33 "HgN/A
2:50 AM39 °FClear.3 mph93%30.33 "Hg10 mi
2:20 AM41 °FClear.5 mph87%30.33 "Hg10 mi
1:50 AM39 °FClear.3 mph93%30.33 "Hg10 mi
12:50 AM43 °FClear.2 mph81%30.33 "Hg10 mi
12:20 AM45 °FClear.2 mph71%30.33 "Hg10 mi
11:50 PM
Tue, May 3
45 °FClear.2 mph71%30.33 "Hg10 mi
11:20 PM45 °FPassing clouds.6 mph76%30.30 "HgN/A
10:50 PM46 °FPassing clouds.3 mph71%30.30 "HgN/A
10:20 PM48 °FPassing clouds.6 mph66%30.30 "HgN/A
9:50 PM50 °FPassing clouds.6 mph58%30.27 "HgN/A
9:20 PM50 °FPassing clouds.5 mph58%30.27 "HgN/A
8:50 PM50 °FPassing clouds.6 mph58%30.24 "HgN/A
8:20 PM52 °FPassing clouds.7 mph54%30.24 "HgN/A
7:50 PM54 °FPassing clouds.10 mph47%30.21 "HgN/A
7:20 PM54 °FPassing clouds.10 mph47%30.21 "HgN/A
6:50 PM55 °FPassing clouds.10 mph44%30.18 "HgN/A
6:20 PM55 °FScattered clouds.7 mph51%30.18 "HgN/A
Weather by CustomWeather, © 2016

See weather overviewHow to use our weather pages